TITAN 3C TRANSTAGE DEB, 19518

Orbit data source: Space-Track

TITAN 3C TRANSTAGE DEB, 19518 is space debris in HEO originally from a launch on Tue, 21 Dec 1965 UTC launched from the Air Force Eastern Test Range (AFETR). Debris objects in space refer to the collection of defunct objects orbiting the Earth. Examples of debris include non-operational satellites, rocket bodies, and fragments generated from explosions, collisions, or faulty payload assembly.

Loading next visibility...
Identifier
19518, 1965-108Z
Orbit
HEO
Country
Flag of USUS
Related business
Manufacturer
Unknown
Mission
Spacecraft
Bus & Motor
Unknown
Mass
Unknown
Launch date (UTC)
1965-12-21 (60 years ago)
Launch vehicle
Unknown
Launch site
Air Force Eastern Test Range (AFETR)
Object type
Payload
Rocket body
Debris
Shape & HBR
Unknown shape, 0.1 m
Radar Cross Section
Medium (>0.1 m² and <1 m²)

Expand to show TLE details & history
Last TLE update: 2 months ago

TLE from 2 months ago
0 TITAN 3C TRANSTAGE DEB
1 19518U 65108Z   25243.19378809  .00002011  00000-0  13449-1 0  9991
2 19518  26.6383  45.0570 6650878 218.7001 353.4080  2.91678141336277
Epoch: 2025-08-31T04:39Z
TLE epoch observation values (Epoch: 2025-08-31T04:39:03.290Z)
Latitude
1.09974°
Longitude
173.4799°
Altitude
1,328.207 km
Speed
9.175 km/s
True Right ascension
14h 51m 26s
True Declination
1° 05' 37"
Sunlit
Object was in daylight at epoch
Visualization orbit readout
Latitude
Unknown
Longitude
Unknown
Altitude
Unknown
Speed
Unknown
Apparent Right ascension
Unknown
Apparent Declination
Unknown
Sunlit
N/A
Visualization observer readout
Local Sidereal Time
06:17:59
Azimuth
Unknown
Elevation
Unknown
Doppler factor
Unknown
Orbital elements
Apogee altitude
28,081.571 km
Perigee altitude
553.015 km
Semi-major axis
20,695.43 km
Eccentricity
0.66509
Inclination
26.6383°
RAAN
45.057°
Arg. of periapsis
218.7001°
True anomaly
319.08496°
Mean anomaly
353.408°
Eccentric anomaly
341.00448°
Mean motion
0.72901 °/min
Orbital period
493.82 mins
BSTAR
0.013449
Loading maneuver chart data...
Computing Atmospheric mass density...

Documentation

Showing up to 5 results
|